Year,Month,Day,Hour,Minute,Value (Times are PST for windspeed in km/hr)
2007,02,18,00,00,3.20
2007,02,18,00,01,1.50
2007,02,18,00,02,0.20
2007,02,18,00,03,0.80
2007,02,18,00,04,4.40
2007,02,18,00,05,8.60
2007,02,18,00,06,8.20
2007,02,18,00,07,6.40
2007,02,18,00,08,2.80
2007,02,18,00,09,0.20
2007,02,18,00,10,0.10
2007,02,18,00,11,0.20
2007,02,18,00,12,0.00
2007,02,18,00,13,0.00
2007,02,18,00,14,0.70
2007,02,18,00,15,1.30
2007,02,18,00,16,2.90
2007,02,18,00,17,3.70
2007,02,18,00,18,6.70
2007,02,18,00,19,8.40
2007,02,18,00,20,8.40
2007,02,18,00,21,9.60
2007,02,18,00,22,8.10
2007,02,18,00,23,8.00
2007,02,18,00,24,3.70
2007,02,18,00,25,4.10
2007,02,18,00,26,5.20
2007,02,18,00,27,10.50
2007,02,18,00,28,8.00
2007,02,18,00,29,6.90
2007,02,18,00,30,9.50
2007,02,18,00,31,6.80
2007,02,18,00,32,2.30
2007,02,18,00,33,1.10
2007,02,18,00,34,1.30
2007,02,18,00,35,1.80
2007,02,18,00,36,6.40
2007,02,18,00,37,6.40
2007,02,18,00,38,5.90
2007,02,18,00,39,5.80
2007,02,18,00,40,5.00
2007,02,18,00,41,2.10
2007,02,18,00,42,2.90
2007,02,18,00,43,3.90
2007,02,18,00,44,2.60
2007,02,18,00,45,3.00
2007,02,18,00,46,2.60
2007,02,18,00,47,5.10
2007,02,18,00,48,1.80
2007,02,18,00,49,0.00
2007,02,18,00,50,2.20
2007,02,18,00,51,4.20
2007,02,18,00,52,5.10
2007,02,18,00,53,9.60
2007,02,18,00,54,7.20
2007,02,18,00,55,7.40
2007,02,18,00,56,5.80
2007,02,18,00,57,6.00
2007,02,18,00,58,4.60
2007,02,18,00,59,1.30
2007,02,18,01,00,4.10
2007,02,18,01,01,5.20
2007,02,18,01,02,4.30
2007,02,18,01,03,5.40
2007,02,18,01,04,7.70
2007,02,18,01,05,6.80
2007,02,18,01,06,7.80
2007,02,18,01,07,7.60
2007,02,18,01,08,8.90
2007,02,18,01,09,8.50
2007,02,18,01,10,6.20
2007,02,18,01,11,5.60
2007,02,18,01,12,1.40
2007,02,18,01,13,2.70
2007,02,18,01,14,1.10
2007,02,18,01,15,1.50
2007,02,18,01,16,3.00
2007,02,18,01,17,0.80
2007,02,18,01,18,1.00
2007,02,18,01,19,4.90
2007,02,18,01,20,5.90
2007,02,18,01,21,3.90
2007,02,18,01,22,4.50
2007,02,18,01,23,6.40
2007,02,18,01,24,2.60
2007,02,18,01,25,1.40
2007,02,18,01,26,3.90
2007,02,18,01,27,0.10
2007,02,18,01,28,0.00
2007,02,18,01,29,0.00
2007,02,18,01,30,0.00
2007,02,18,01,31,0.00
2007,02,18,01,32,0.00
2007,02,18,01,33,1.00
2007,02,18,01,34,3.60
2007,02,18,01,35,6.70
2007,02,18,01,36,5.80
2007,02,18,01,37,4.80
2007,02,18,01,38,3.50
2007,02,18,01,39,2.80
2007,02,18,01,40,5.30
2007,02,18,01,41,4.30
2007,02,18,01,42,1.40
2007,02,18,01,43,0.50
2007,02,18,01,44,2.80
2007,02,18,01,45,3.90
2007,02,18,01,46,4.40
2007,02,18,01,47,7.10
2007,02,18,01,48,6.00
2007,02,18,01,49,5.00
2007,02,18,01,50,1.10
2007,02,18,01,51,1.20
2007,02,18,01,52,2.50
2007,02,18,01,53,2.60
2007,02,18,01,54,1.30
2007,02,18,01,55,1.90
2007,02,18,01,56,2.40
2007,02,18,01,57,5.90
2007,02,18,01,58,5.00
2007,02,18,01,59,4.30
2007,02,18,02,00,4.20
2007,02,18,02,01,5.40
2007,02,18,02,02,5.80
2007,02,18,02,03,6.40
2007,02,18,02,04,5.70
2007,02,18,02,05,3.40
2007,02,18,02,06,0.80
2007,02,18,02,07,1.00
2007,02,18,02,08,0.40
2007,02,18,02,09,2.10
2007,02,18,02,10,7.70
2007,02,18,02,11,7.80
2007,02,18,02,12,8.70
2007,02,18,02,13,7.80
2007,02,18,02,14,6.90
2007,02,18,02,15,4.30
2007,02,18,02,16,3.00
2007,02,18,02,17,4.10
2007,02,18,02,18,4.60
2007,02,18,02,19,1.80
2007,02,18,02,20,0.00
2007,02,18,02,21,1.90
2007,02,18,02,22,6.00
2007,02,18,02,23,7.10
2007,02,18,02,24,7.70
2007,02,18,02,25,8.70
2007,02,18,02,26,8.00
2007,02,18,02,27,7.80
2007,02,18,02,28,7.90
2007,02,18,02,29,9.30
2007,02,18,02,30,8.00
2007,02,18,02,31,4.10
2007,02,18,02,32,2.20
2007,02,18,02,33,9.30
2007,02,18,02,34,5.00
2007,02,18,02,35,0.30
2007,02,18,02,36,0.00
2007,02,18,02,37,2.00
2007,02,18,02,38,4.30
2007,02,18,02,39,3.30
2007,02,18,02,40,3.50
2007,02,18,02,41,2.20
2007,02,18,02,42,0.20
2007,02,18,02,43,0.00
2007,02,18,02,44,0.00
2007,02,18,02,45,3.00
2007,02,18,02,46,0.60
2007,02,18,02,47,3.50
2007,02,18,02,48,6.00
2007,02,18,02,49,5.40
2007,02,18,02,50,1.30
2007,02,18,02,51,2.40
2007,02,18,02,52,6.50
2007,02,18,02,53,7.50
2007,02,18,02,54,4.40
2007,02,18,02,55,0.00
2007,02,18,02,56,2.20
2007,02,18,02,57,1.50
2007,02,18,02,58,1.80
2007,02,18,02,59,3.70
2007,02,18,03,00,3.70
2007,02,18,03,01,2.20
2007,02,18,03,02,2.70
2007,02,18,03,03,3.70
2007,02,18,03,04,3.50
2007,02,18,03,05,5.60
2007,02,18,03,06,3.80
2007,02,18,03,07,5.10
2007,02,18,03,08,7.00
2007,02,18,03,09,6.90
2007,02,18,03,10,4.60
2007,02,18,03,11,2.00
2007,02,18,03,12,0.50
2007,02,18,03,13,0.20
2007,02,18,03,14,0.00
2007,02,18,03,15,0.00
2007,02,18,03,16,2.70
2007,02,18,03,17,9.70
2007,02,18,03,18,6.60
2007,02,18,03,19,12.20
2007,02,18,03,20,15.10
2007,02,18,03,21,8.20
2007,02,18,03,22,4.30
2007,02,18,03,23,2.10
2007,02,18,03,24,2.60
2007,02,18,03,25,4.00
2007,02,18,03,26,2.10
2007,02,18,03,27,6.50
2007,02,18,03,28,8.00
2007,02,18,03,29,6.00
2007,02,18,03,30,4.30
2007,02,18,03,31,6.10
2007,02,18,03,32,8.00
2007,02,18,03,33,7.50
2007,02,18,03,34,7.20
2007,02,18,03,35,12.00
2007,02,18,03,36,7.20
2007,02,18,03,37,8.70
2007,02,18,03,38,6.90
2007,02,18,03,39,7.80
2007,02,18,03,40,8.00
2007,02,18,03,41,5.10
2007,02,18,03,42,11.10
2007,02,18,03,43,14.00
2007,02,18,03,44,17.70
2007,02,18,03,45,14.00
2007,02,18,03,46,12.30
2007,02,18,03,47,3.90
2007,02,18,03,48,4.30
2007,02,18,03,49,8.90
2007,02,18,03,50,15.40
2007,02,18,03,51,18.60
2007,02,18,03,52,9.50
2007,02,18,03,53,11.20
2007,02,18,03,54,7.00
2007,02,18,03,55,9.30
2007,02,18,03,56,8.90
2007,02,18,03,57,10.40
2007,02,18,03,58,16.20
2007,02,18,03,59,13.30
2007,02,18,04,00,15.70
2007,02,18,04,01,12.80
2007,02,18,04,02,10.10
2007,02,18,04,03,6.90
2007,02,18,04,04,9.70
2007,02,18,04,05,17.10
2007,02,18,04,06,22.20
2007,02,18,04,07,13.30
2007,02,18,04,08,5.30
2007,02,18,04,09,6.80
2007,02,18,04,10,9.70
2007,02,18,04,11,8.30
2007,02,18,04,12,13.00
2007,02,18,04,13,9.60
2007,02,18,04,14,8.00
2007,02,18,04,15,15.80
2007,02,18,04,16,15.30
2007,02,18,04,17,16.50
2007,02,18,04,18,11.50
2007,02,18,04,19,11.10
2007,02,18,04,20,10.90
2007,02,18,04,21,7.70
2007,02,18,04,22,11.70
2007,02,18,04,23,16.60
2007,02,18,04,24,18.80
2007,02,18,04,25,11.00
2007,02,18,04,26,11.70
2007,02,18,04,27,10.10
2007,02,18,04,28,12.60
2007,02,18,04,29,8.90
2007,02,18,04,30,12.20
2007,02,18,04,31,5.60
2007,02,18,04,32,4.60
2007,02,18,04,33,5.40
2007,02,18,04,34,7.50
2007,02,18,04,35,12.40
2007,02,18,04,36,5.70
2007,02,18,04,37,3.70
2007,02,18,04,38,3.70
2007,02,18,04,39,3.50
2007,02,18,04,40,4.10
2007,02,18,04,41,3.90
2007,02,18,04,42,3.10
2007,02,18,04,43,2.30
2007,02,18,04,44,5.00
2007,02,18,04,45,4.80
2007,02,18,04,46,5.70
2007,02,18,04,47,2.30
2007,02,18,04,48,3.00
2007,02,18,04,49,6.70
2007,02,18,04,50,4.30
2007,02,18,04,51,3.40
2007,02,18,04,52,3.40
2007,02,18,04,53,4.10
2007,02,18,04,54,4.20
2007,02,18,04,55,3.40
2007,02,18,04,56,3.20
2007,02,18,04,57,1.50
2007,02,18,04,58,9.70
2007,02,18,04,59,4.00
2007,02,18,05,00,3.70
2007,02,18,05,01,1.80
2007,02,18,05,02,2.40
2007,02,18,05,03,0.00
2007,02,18,05,04,1.60
2007,02,18,05,05,3.90
2007,02,18,05,06,1.40
2007,02,18,05,07,0.60
2007,02,18,05,08,4.70
2007,02,18,05,09,3.10
2007,02,18,05,10,4.60
2007,02,18,05,11,3.30
2007,02,18,05,12,4.90
2007,02,18,05,13,4.00
2007,02,18,05,14,4.80
2007,02,18,05,15,2.20
2007,02,18,05,16,4.90
2007,02,18,05,17,8.40
2007,02,18,05,18,7.00
2007,02,18,05,19,6.40
2007,02,18,05,20,3.00
2007,02,18,05,21,1.10
2007,02,18,05,22,0.20
2007,02,18,05,23,0.00
2007,02,18,05,24,0.50
2007,02,18,05,25,0.80
2007,02,18,05,26,0.20
2007,02,18,05,27,0.00
2007,02,18,05,28,0.40
2007,02,18,05,29,7.70
2007,02,18,05,30,13.80
2007,02,18,05,31,11.80
2007,02,18,05,32,11.00
2007,02,18,05,33,6.00
2007,02,18,05,34,8.30
2007,02,18,05,35,4.60
2007,02,18,05,36,10.00
2007,02,18,05,37,13.30
2007,02,18,05,38,10.00
2007,02,18,05,39,9.00
2007,02,18,05,40,11.00
2007,02,18,05,41,13.50
2007,02,18,05,42,14.70
2007,02,18,05,43,8.10
2007,02,18,05,44,13.40
2007,02,18,05,45,15.30
2007,02,18,05,46,19.70
2007,02,18,05,47,14.50
2007,02,18,05,48,14.80
2007,02,18,05,49,17.10
2007,02,18,05,50,11.60
2007,02,18,05,51,11.50
2007,02,18,05,52,14.40
2007,02,18,05,53,12.80
2007,02,18,05,54,6.40
2007,02,18,05,55,13.60
2007,02,18,05,56,14.10
2007,02,18,05,57,7.90
2007,02,18,05,58,11.70
2007,02,18,05,59,8.90
2007,02,18,06,00,11.30
2007,02,18,06,01,17.40
2007,02,18,06,02,6.80
2007,02,18,06,03,6.70
2007,02,18,06,04,8.20
2007,02,18,06,05,3.50
2007,02,18,06,06,19.90
2007,02,18,06,07,15.80
2007,02,18,06,08,9.80
2007,02,18,06,09,15.00
2007,02,18,06,10,6.40
2007,02,18,06,11,11.20
2007,02,18,06,12,10.60
2007,02,18,06,13,15.40
2007,02,18,06,14,11.10
2007,02,18,06,15,8.60
2007,02,18,06,16,6.70
2007,02,18,06,17,6.00
2007,02,18,06,18,19.00
2007,02,18,06,19,8.20
2007,02,18,06,20,2.70
2007,02,18,06,21,12.00
2007,02,18,06,22,12.10
2007,02,18,06,23,5.40
2007,02,18,06,24,11.10
2007,02,18,06,25,8.60
2007,02,18,06,26,11.50
2007,02,18,06,27,2.80
2007,02,18,06,28,3.10
2007,02,18,06,29,10.80
2007,02,18,06,30,10.60
2007,02,18,06,31,10.80
2007,02,18,06,32,6.10
2007,02,18,06,33,3.00
2007,02,18,06,34,10.00
2007,02,18,06,35,6.00
2007,02,18,06,36,7.60
2007,02,18,06,37,3.90
2007,02,18,06,38,3.50
2007,02,18,06,39,5.20
2007,02,18,06,40,1.90
2007,02,18,06,41,2.70
2007,02,18,06,42,3.90
2007,02,18,06,43,7.10
2007,02,18,06,44,5.80
2007,02,18,06,45,7.90
2007,02,18,06,46,2.80
2007,02,18,06,47,1.10
2007,02,18,06,48,3.10
2007,02,18,06,49,6.10
2007,02,18,06,50,4.30
2007,02,18,06,51,1.20
2007,02,18,06,52,10.50
2007,02,18,06,53,8.40
2007,02,18,06,54,3.90
2007,02,18,06,55,5.70
2007,02,18,06,56,8.10
2007,02,18,06,57,6.00
2007,02,18,06,58,3.70
2007,02,18,06,59,3.20
2007,02,18,07,00,3.20
2007,02,18,07,01,3.20
2007,02,18,07,02,3.20
2007,02,18,07,03,3.40
2007,02,18,07,04,4.70
2007,02,18,07,05,5.30
2007,02,18,07,06,9.30
2007,02,18,07,07,6.90
2007,02,18,07,08,6.10
2007,02,18,07,09,0.60
2007,02,18,07,10,4.80
2007,02,18,07,11,4.50
2007,02,18,07,12,3.80
2007,02,18,07,13,3.60
2007,02,18,07,14,2.20
2007,02,18,07,15,8.00
2007,02,18,07,16,5.40
2007,02,18,07,17,1.90
2007,02,18,07,18,0.50
2007,02,18,07,19,4.30
2007,02,18,07,20,6.10
2007,02,18,07,21,6.40
2007,02,18,07,22,0.30
2007,02,18,07,23,0.00
2007,02,18,07,24,2.00
2007,02,18,07,25,1.30
2007,02,18,07,26,0.60
2007,02,18,07,27,2.20
2007,02,18,07,28,4.10
2007,02,18,07,29,6.60
2007,02,18,07,30,2.70
2007,02,18,07,31,3.10
2007,02,18,07,32,0.10
2007,02,18,07,33,0.00
2007,02,18,07,34,0.00
2007,02,18,07,35,0.00
2007,02,18,07,36,0.10
2007,02,18,07,37,2.60
2007,02,18,07,38,1.60
2007,02,18,07,39,0.00
2007,02,18,07,40,0.10
2007,02,18,07,41,2.30
2007,02,18,07,42,2.50
2007,02,18,07,43,2.00
2007,02,18,07,44,0.90
2007,02,18,07,45,3.00
2007,02,18,07,46,2.30
2007,02,18,07,47,1.50
2007,02,18,07,48,0.00
2007,02,18,07,49,0.00
2007,02,18,07,50,3.30
2007,02,18,07,51,4.40
2007,02,18,07,52,3.60
2007,02,18,07,53,2.90
2007,02,18,07,54,1.20
2007,02,18,07,55,0.00
2007,02,18,07,56,0.00
2007,02,18,07,57,1.30
2007,02,18,07,58,4.00
2007,02,18,07,59,2.40
2007,02,18,08,00,0.20
2007,02,18,08,01,0.00
2007,02,18,08,02,2.10
2007,02,18,08,03,2.80
2007,02,18,08,04,3.00
2007,02,18,08,05,4.20
2007,02,18,08,06,3.20
2007,02,18,08,07,1.80
2007,02,18,08,08,1.20
2007,02,18,08,09,0.00
2007,02,18,08,10,1.20
2007,02,18,08,11,0.30
2007,02,18,08,12,0.00
2007,02,18,08,13,0.00
2007,02,18,08,14,0.00
2007,02,18,08,15,0.00
2007,02,18,08,16,0.00
2007,02,18,08,17,0.00
2007,02,18,08,18,0.00
2007,02,18,08,19,0.00
2007,02,18,08,20,0.00
2007,02,18,08,21,0.00
2007,02,18,08,22,0.00
2007,02,18,08,23,0.50
2007,02,18,08,24,4.30
2007,02,18,08,25,3.80
2007,02,18,08,26,1.00
2007,02,18,08,27,0.00
2007,02,18,08,28,0.00
2007,02,18,08,29,0.00
2007,02,18,08,30,0.40
2007,02,18,08,31,2.70
2007,02,18,08,32,3.60
2007,02,18,08,33,2.90
2007,02,18,08,34,1.30
2007,02,18,08,35,1.00
2007,02,18,08,36,0.80
2007,02,18,08,37,0.50
2007,02,18,08,38,0.00
2007,02,18,08,39,0.00
2007,02,18,08,40,0.00
2007,02,18,08,41,0.00
2007,02,18,08,42,0.00
2007,02,18,08,43,0.00
2007,02,18,08,44,0.00
2007,02,18,08,45,1.90
2007,02,18,08,46,3.60
2007,02,18,08,47,5.20
2007,02,18,08,48,3.90
2007,02,18,08,49,3.80
2007,02,18,08,50,3.40
2007,02,18,08,51,0.80
2007,02,18,08,52,0.00
2007,02,18,08,53,0.10
2007,02,18,08,54,0.00
2007,02,18,08,55,0.00
2007,02,18,08,56,0.00
2007,02,18,08,57,1.40
2007,02,18,08,58,3.30
2007,02,18,08,59,1.00
2007,02,18,09,00,0.00
2007,02,18,09,01,0.00
2007,02,18,09,02,0.00
2007,02,18,09,03,0.90
2007,02,18,09,04,3.20
2007,02,18,09,05,0.70
2007,02,18,09,06,1.40
2007,02,18,09,07,0.00
2007,02,18,09,08,0.00
2007,02,18,09,09,0.00
2007,02,18,09,10,0.00
2007,02,18,09,11,0.00
2007,02,18,09,12,0.20
2007,02,18,09,13,0.20
2007,02,18,09,14,3.60
2007,02,18,09,15,2.10
2007,02,18,09,16,1.00
2007,02,18,09,17,0.00
2007,02,18,09,18,0.00
2007,02,18,09,19,0.10
2007,02,18,09,20,3.50
2007,02,18,09,21,2.60
2007,02,18,09,22,0.30
2007,02,18,09,23,0.50
2007,02,18,09,24,1.40
2007,02,18,09,25,1.00
2007,02,18,09,26,2.00
2007,02,18,09,27,2.20
2007,02,18,09,28,2.30
2007,02,18,09,29,0.00
2007,02,18,09,30,0.90
2007,02,18,09,31,1.90
2007,02,18,09,32,2.30
2007,02,18,09,33,3.10
2007,02,18,09,34,0.30
2007,02,18,09,35,0.70
2007,02,18,09,36,3.00
2007,02,18,09,37,0.30
2007,02,18,09,38,0.00
2007,02,18,09,39,1.50
2007,02,18,09,40,0.70
2007,02,18,09,41,0.00
2007,02,18,09,42,0.00
2007,02,18,09,43,0.00
2007,02,18,09,44,0.00
2007,02,18,09,45,0.90
2007,02,18,09,46,1.30
2007,02,18,09,47,0.20
2007,02,18,09,48,4.80
2007,02,18,09,49,4.30
2007,02,18,09,50,1.20
2007,02,18,09,51,0.00
2007,02,18,09,52,0.40
2007,02,18,09,53,0.90
2007,02,18,09,54,1.60
2007,02,18,09,55,2.60
2007,02,18,09,56,1.10
2007,02,18,09,57,4.90
2007,02,18,09,58,7.80
2007,02,18,09,59,2.70
2007,02,18,10,00,2.70
2007,02,18,10,01,0.60
2007,02,18,10,02,3.80
2007,02,18,10,03,3.90
2007,02,18,10,04,7.90
2007,02,18,10,05,3.50
2007,02,18,10,06,10.20
2007,02,18,10,07,10.50
2007,02,18,10,08,11.60
2007,02,18,10,09,9.10
2007,02,18,10,10,4.70
2007,02,18,10,11,10.90
2007,02,18,10,12,13.00
2007,02,18,10,13,11.70
2007,02,18,10,14,4.80
2007,02,18,10,15,1.70
2007,02,18,10,16,3.10
2007,02,18,10,17,3.90
2007,02,18,10,18,3.00
2007,02,18,10,19,3.10
2007,02,18,10,20,1.00
2007,02,18,10,21,1.10
2007,02,18,10,22,3.60
2007,02,18,10,23,2.20
2007,02,18,10,24,4.80
2007,02,18,10,25,5.60
2007,02,18,10,26,1.60
2007,02,18,10,27,1.50
2007,02,18,10,28,1.80
2007,02,18,10,29,0.60
2007,02,18,10,30,0.00
2007,02,18,10,31,2.10
2007,02,18,10,32,0.30
2007,02,18,10,33,1.30
2007,02,18,10,34,2.40
2007,02,18,10,35,3.60
2007,02,18,10,36,16.30
2007,02,18,10,37,16.70
2007,02,18,10,38,8.40
2007,02,18,10,39,9.70
2007,02,18,10,40,3.10
2007,02,18,10,41,2.70
2007,02,18,10,42,5.60
2007,02,18,10,43,7.60
2007,02,18,10,44,4.40
2007,02,18,10,45,6.80
2007,02,18,10,46,5.40
2007,02,18,10,47,8.40
2007,02,18,10,48,16.10
2007,02,18,10,49,12.60
2007,02,18,10,50,14.60
2007,02,18,10,51,13.80
2007,02,18,10,52,15.20
2007,02,18,10,53,10.90
2007,02,18,10,54,9.70
2007,02,18,10,55,10.90
2007,02,18,10,56,10.90
2007,02,18,10,57,10.50
2007,02,18,10,58,14.90
2007,02,18,10,59,6.80
2007,02,18,11,00,4.70
2007,02,18,11,01,12.40
2007,02,18,11,02,14.10
2007,02,18,11,03,13.00
2007,02,18,11,04,9.80
2007,02,18,11,05,11.30
2007,02,18,11,06,15.60
2007,02,18,11,07,13.30
2007,02,18,11,08,15.70
2007,02,18,11,09,13.30
2007,02,18,11,10,8.90
2007,02,18,11,11,7.90
2007,02,18,11,12,7.00
2007,02,18,11,13,5.70
2007,02,18,11,14,0.90
2007,02,18,11,15,0.20
2007,02,18,11,16,0.00
2007,02,18,11,17,0.00
2007,02,18,11,18,1.40
2007,02,18,11,19,2.30
2007,02,18,11,20,4.70
2007,02,18,11,21,0.70
2007,02,18,11,22,0.00
2007,02,18,11,23,1.20
2007,02,18,11,24,1.70
2007,02,18,11,25,1.90
2007,02,18,11,26,2.00
2007,02,18,11,27,6.20
2007,02,18,11,28,7.10
2007,02,18,11,29,5.60
2007,02,18,11,30,4.30
2007,02,18,11,31,3.90
2007,02,18,11,32,2.30
2007,02,18,11,33,4.20
2007,02,18,11,34,4.40
2007,02,18,11,35,2.10
2007,02,18,11,36,2.60
2007,02,18,11,37,4.10
2007,02,18,11,38,4.30
2007,02,18,11,39,6.60
2007,02,18,11,40,5.70
2007,02,18,11,41,4.90
2007,02,18,11,42,9.30
2007,02,18,11,43,12.60
2007,02,18,11,44,7.90
2007,02,18,11,45,6.60
2007,02,18,11,46,4.40
2007,02,18,11,47,4.70
2007,02,18,11,48,3.30
2007,02,18,11,49,3.90
2007,02,18,11,50,7.10
2007,02,18,11,51,6.90
2007,02,18,11,52,4.70
2007,02,18,11,53,1.00
2007,02,18,11,54,0.90
2007,02,18,11,55,3.60
2007,02,18,11,56,6.30
2007,02,18,11,57,2.90
2007,02,18,11,58,3.00
2007,02,18,11,59,0.20
2007,02,18,12,00,2.00
2007,02,18,12,01,5.40
2007,02,18,12,02,4.70
2007,02,18,12,03,3.00
2007,02,18,12,04,3.90
2007,02,18,12,05,5.20
2007,02,18,12,06,4.30
2007,02,18,12,07,4.50
2007,02,18,12,08,2.50
2007,02,18,12,09,2.40
2007,02,18,12,10,4.20
2007,02,18,12,11,5.60
2007,02,18,12,12,4.50
2007,02,18,12,13,3.90
2007,02,18,12,14,5.50
2007,02,18,12,15,0.20
2007,02,18,12,16,2.70
2007,02,18,12,17,0.20
2007,02,18,12,18,0.00
2007,02,18,12,19,0.00
2007,02,18,12,20,0.00
2007,02,18,12,21,0.10
2007,02,18,12,22,4.30
2007,02,18,12,23,3.10
2007,02,18,12,24,3.70
2007,02,18,12,25,4.80
2007,02,18,12,26,6.00
2007,02,18,12,27,10.70
2007,02,18,12,28,4.30
2007,02,18,12,29,11.20
2007,02,18,12,30,9.60
2007,02,18,12,31,8.00
2007,02,18,12,32,4.50
2007,02,18,12,33,1.70
2007,02,18,12,34,6.00
2007,02,18,12,35,7.50
2007,02,18,12,36,5.30
2007,02,18,12,37,12.30
2007,02,18,12,38,10.10
2007,02,18,12,39,9.70
2007,02,18,12,40,11.80
2007,02,18,12,41,11.80
2007,02,18,12,42,5.10
2007,02,18,12,43,4.50
2007,02,18,12,44,5.80
2007,02,18,12,45,6.40
2007,02,18,12,46,3.80
2007,02,18,12,47,4.70
2007,02,18,12,48,3.70
2007,02,18,12,49,8.50
2007,02,18,12,50,5.80
2007,02,18,12,51,2.00
2007,02,18,12,52,3.60
2007,02,18,12,53,5.40
2007,02,18,12,54,11.20
2007,02,18,12,55,6.90
2007,02,18,12,56,10.40
2007,02,18,12,57,8.80
2007,02,18,12,58,7.30
2007,02,18,12,59,10.00
2007,02,18,13,00,6.30
2007,02,18,13,01,5.50
2007,02,18,13,02,7.00
2007,02,18,13,03,7.00
2007,02,18,13,04,6.90
2007,02,18,13,05,9.70
2007,02,18,13,06,10.10
2007,02,18,13,07,8.20
2007,02,18,13,08,6.00
2007,02,18,13,09,12.30
2007,02,18,13,10,13.70
2007,02,18,13,11,8.10
2007,02,18,13,12,9.00
2007,02,18,13,13,10.40
2007,02,18,13,14,12.20
2007,02,18,13,15,9.00
2007,02,18,13,16,11.40
2007,02,18,13,17,7.80
2007,02,18,13,18,8.90
2007,02,18,13,19,12.10
2007,02,18,13,20,7.60
2007,02,18,13,21,11.00
2007,02,18,13,22,4.90
2007,02,18,13,23,14.50
2007,02,18,13,24,19.00
2007,02,18,13,25,16.60
2007,02,18,13,26,9.50
2007,02,18,13,27,8.90
2007,02,18,13,28,14.20
2007,02,18,13,29,19.20
2007,02,18,13,30,22.30
2007,02,18,13,31,16.80
2007,02,18,13,32,17.70
2007,02,18,13,33,14.50
2007,02,18,13,34,20.00
2007,02,18,13,35,18.10
2007,02,18,13,36,6.80
2007,02,18,13,37,12.70
2007,02,18,13,38,12.40
2007,02,18,13,39,4.40
2007,02,18,13,40,16.60
2007,02,18,13,41,13.60
2007,02,18,13,42,12.70
2007,02,18,13,43,7.60
2007,02,18,13,44,6.30
2007,02,18,13,45,17.10
2007,02,18,13,46,17.80
2007,02,18,13,47,16.90
2007,02,18,13,48,15.90
2007,02,18,13,49,14.90
2007,02,18,13,50,13.60
2007,02,18,13,51,19.00
2007,02,18,13,52,13.00
2007,02,18,13,53,15.90
2007,02,18,13,54,17.10
2007,02,18,13,55,11.00
2007,02,18,13,56,15.20
2007,02,18,13,57,19.70
2007,02,18,13,58,19.30
2007,02,18,13,59,19.70
2007,02,18,14,00,20.70
2007,02,18,14,01,22.00
2007,02,18,14,02,15.50
2007,02,18,14,03,18.40
2007,02,18,14,04,11.60
2007,02,18,14,05,16.70
2007,02,18,14,06,20.50
2007,02,18,14,07,18.40
2007,02,18,14,08,16.30
2007,02,18,14,09,14.90
2007,02,18,14,10,9.60
2007,02,18,14,11,10.90
2007,02,18,14,12,12.40
2007,02,18,14,13,15.00
2007,02,18,14,14,15.80
2007,02,18,14,15,12.60
2007,02,18,14,16,10.80
2007,02,18,14,17,7.50
2007,02,18,14,18,7.20
2007,02,18,14,19,8.60
2007,02,18,14,20,18.60
2007,02,18,14,21,20.10
2007,02,18,14,22,11.30
2007,02,18,14,23,19.30
2007,02,18,14,24,11.80
2007,02,18,14,25,6.70
2007,02,18,14,26,18.70
2007,02,18,14,27,16.30
2007,02,18,14,28,17.60
2007,02,18,14,29,8.00
2007,02,18,14,30,15.00
2007,02,18,14,31,15.90
2007,02,18,14,32,20.30
2007,02,18,14,33,11.30
2007,02,18,14,34,9.30
2007,02,18,14,35,12.30
2007,02,18,14,36,23.40
2007,02,18,14,37,19.90
2007,02,18,14,38,12.60
2007,02,18,14,39,20.40
2007,02,18,14,40,16.40
2007,02,18,14,41,18.60
2007,02,18,14,42,14.50
2007,02,18,14,43,18.30
2007,02,18,14,44,15.10
2007,02,18,14,45,10.50
2007,02,18,14,46,12.00
2007,02,18,14,47,18.40
2007,02,18,14,48,12.50
2007,02,18,14,49,12.10
2007,02,18,14,50,10.90
2007,02,18,14,51,15.60
2007,02,18,14,52,22.60
2007,02,18,14,53,23.30
2007,02,18,14,54,15.70
2007,02,18,14,55,18.20
2007,02,18,14,56,18.80
2007,02,18,14,57,11.60
2007,02,18,14,58,15.60
2007,02,18,14,59,15.80
2007,02,18,15,00,19.90
2007,02,18,15,01,21.60
2007,02,18,15,02,20.00
2007,02,18,15,03,11.90
2007,02,18,15,04,11.50
2007,02,18,15,05,14.30
2007,02,18,15,06,11.30
2007,02,18,15,07,9.40
2007,02,18,15,08,5.70
2007,02,18,15,09,8.30
2007,02,18,15,10,12.10
2007,02,18,15,11,10.90
2007,02,18,15,12,13.60
2007,02,18,15,13,12.10
2007,02,18,15,14,8.20
2007,02,18,15,15,10.50
2007,02,18,15,16,9.70
2007,02,18,15,17,10.60
2007,02,18,15,18,9.00
2007,02,18,15,19,13.00
2007,02,18,15,20,19.30
2007,02,18,15,21,18.10
2007,02,18,15,22,17.10
2007,02,18,15,23,13.10
2007,02,18,15,24,13.30
2007,02,18,15,25,10.20
2007,02,18,15,26,22.80
2007,02,18,15,27,16.10
2007,02,18,15,28,14.10
2007,02,18,15,29,12.40
2007,02,18,15,30,15.80
2007,02,18,15,31,21.00
2007,02,18,15,32,17.20
2007,02,18,15,33,18.50
2007,02,18,15,34,11.10
2007,02,18,15,35,17.00
2007,02,18,15,36,16.10
2007,02,18,15,37,17.60
2007,02,18,15,38,13.00
2007,02,18,15,39,14.20
2007,02,18,15,40,11.60
2007,02,18,15,41,11.20
2007,02,18,15,42,13.80
2007,02,18,15,43,12.20
2007,02,18,15,44,13.70
2007,02,18,15,45,20.00
2007,02,18,15,46,12.70
2007,02,18,15,47,13.50
2007,02,18,15,48,11.30
2007,02,18,15,49,7.50
2007,02,18,15,50,14.80
2007,02,18,15,51,19.80
2007,02,18,15,52,19.00
2007,02,18,15,53,15.60
2007,02,18,15,54,7.30
2007,02,18,15,55,10.00
2007,02,18,15,56,11.20
2007,02,18,15,57,14.20
2007,02,18,15,58,12.50
2007,02,18,15,59,11.40
2007,02,18,16,00,11.50
2007,02,18,16,01,9.90
2007,02,18,16,02,4.30
2007,02,18,16,03,10.20
2007,02,18,16,04,15.40
2007,02,18,16,05,8.20
2007,02,18,16,06,9.00
2007,02,18,16,07,9.90
2007,02,18,16,08,7.90
2007,02,18,16,09,15.50
2007,02,18,16,10,11.00
2007,02,18,16,11,5.00
2007,02,18,16,12,10.50
2007,02,18,16,13,11.40
2007,02,18,16,14,11.30
2007,02,18,16,15,10.30
2007,02,18,16,16,6.70
2007,02,18,16,17,9.70
2007,02,18,16,18,11.10
2007,02,18,16,19,14.30
2007,02,18,16,20,12.40
2007,02,18,16,21,10.30
2007,02,18,16,22,12.70
2007,02,18,16,23,12.50
2007,02,18,16,24,3.90
2007,02,18,16,25,8.60
2007,02,18,16,26,5.30
2007,02,18,16,27,4.20
2007,02,18,16,28,4.50
2007,02,18,16,29,5.80
2007,02,18,16,30,3.50
2007,02,18,16,31,1.90
2007,02,18,16,32,2.00
2007,02,18,16,33,12.10
2007,02,18,16,34,14.10
2007,02,18,16,35,9.30
2007,02,18,16,36,10.80
2007,02,18,16,37,13.40
2007,02,18,16,38,11.10
2007,02,18,16,39,5.90
2007,02,18,16,40,12.00
2007,02,18,16,41,7.80
2007,02,18,16,42,10.90
2007,02,18,16,43,9.60
2007,02,18,16,44,4.60
2007,02,18,16,45,5.50
2007,02,18,16,46,8.90
2007,02,18,16,47,7.20
2007,02,18,16,48,6.70
2007,02,18,16,49,11.10
2007,02,18,16,50,10.50
2007,02,18,16,51,9.30
2007,02,18,16,52,9.90
2007,02,18,16,53,9.90
2007,02,18,16,54,9.30
2007,02,18,16,55,10.40
2007,02,18,16,56,6.40
2007,02,18,16,57,7.00
2007,02,18,16,58,6.10
2007,02,18,16,59,6.90
2007,02,18,17,00,4.20
2007,02,18,17,01,0.10
2007,02,18,17,02,4.10
2007,02,18,17,03,4.00
2007,02,18,17,04,1.10
2007,02,18,17,05,2.40
2007,02,18,17,06,3.80
2007,02,18,17,07,3.60
2007,02,18,17,08,1.00
2007,02,18,17,09,5.60
2007,02,18,17,10,9.30
2007,02,18,17,11,9.00
2007,02,18,17,12,6.10
2007,02,18,17,13,5.80
2007,02,18,17,14,4.10
2007,02,18,17,15,4.10
2007,02,18,17,16,4.90
2007,02,18,17,17,4.80
2007,02,18,17,18,6.30
2007,02,18,17,19,3.50
2007,02,18,17,20,4.30
2007,02,18,17,21,1.80
2007,02,18,17,22,3.10
2007,02,18,17,23,3.70
2007,02,18,17,24,2.80
2007,02,18,17,25,4.90
2007,02,18,17,26,7.40
2007,02,18,17,27,6.10
2007,02,18,17,28,4.30
2007,02,18,17,29,8.90
2007,02,18,17,30,7.40
2007,02,18,17,31,6.80
2007,02,18,17,32,6.70
2007,02,18,17,33,7.40
2007,02,18,17,34,11.20
2007,02,18,17,35,10.10
2007,02,18,17,36,6.80
2007,02,18,17,37,7.10
2007,02,18,17,38,11.30
2007,02,18,17,39,16.30
2007,02,18,17,40,12.30
2007,02,18,17,41,12.10
2007,02,18,17,42,10.00
2007,02,18,17,43,8.30
2007,02,18,17,44,6.80
2007,02,18,17,45,5.80
2007,02,18,17,46,9.10
2007,02,18,17,47,9.40
2007,02,18,17,48,8.90
2007,02,18,17,49,4.70
2007,02,18,17,50,4.00
2007,02,18,17,51,8.10
2007,02,18,17,52,7.30
2007,02,18,17,53,5.70